Location: Waco, TX
(31.5480°N, 97.1670°W)
Time: 23:14:42
(UTC-06:00)

ISS - Pass Details

Date: 14 November 2018
Orbit: 402 x 408 km, 51.6° (Epoch: 16 November)

Event Time Altitude Azimuth Distance (km) Brightness Sun altitude
Rises 06:27:02 0° 311° (NW) 2,318 - -6.6°
Exits shadow 06:28:31 - 308° (NW) 1,706 -1.3 -6.3°
Reaches altitude 10° 06:29:08 10° 307° (NW) 1,457 -1.6 -6.2°
Maximum altitude 06:32:21 56° 228° (SW) 484 -3.6 -5.5°
Drops below altitude 10° 06:35:33 10° 149° (SSE) 1,453 -0.2 -4.9°
Sets 06:37:38 0° 145° (SE) 2,310 1.0 -4.5°
